Content
SEND FEEDBACK

Daily
Averages
Monthly
Summary
United States of America

BALDWIN, FLORIDA


Home > North America > United States > Florida
Elevation: 89 feet     Latitude: 30 13N     Longitude: 081 52W

WEATHER
 
SELECT A DAY
Number of Records: 132,305;   Date Range: 10/16/00 - 10/21/14
 
SHARE

PRINT THIS DATA

[ ← Previous Day ]
WEATHER ALMANAC - FEBRUARY 18, 2013
[ Next Day → ]
[ °C ]   °F
Weather ElementAverageHighLow
Temperature33.9 °F60.8 °F (2:50 pm)19.4 °F (5:15 am)
Dewpoint27.1 °F39.2 °F (5:50 pm)17.6 °F (5:15 am)
Humidity81 %100 % (6:15 am)33 % (11:50 am)
Barometer30.34 in30.43 in (10:50 am)30.25 in (11:15 pm)
Wind Speed1.4 mph10.4 mph (11:50 am)
Weather ElementAverage
Visibility10 mi
Wind DirectionNNE (25.4 °)

Weather ElementTotal
Precipitation---
Heating Degree Days24.9 (Base 65)
Averaged from 41 records on February 18, 2013
WEATHER CONDITIONS BREAKOUT
WIND DIRECTION BREAKOUT
WEATHER BY HOUR - FEBRUARY 18, 2013
[ °C ]   °F
Local TimeTemperatureDewpointHumidityBarometerVisibilityWind DirectionWind SpeedGust SpeedPrecipitationEventsConditions
12:35 AM24.8 °F21.2 °F86 %30.38 in10.0 miCalmClear
12:55 AM23.0 °F21.2 °F93 %30.38 in10.0 miCalmClear
1:15 AM23.0 °F19.4 °F86 %30.38 in10.0 miCalmClear
1:35 AM23.0 °F19.4 °F86 %30.38 in10.0 miCalmClear
1:55 AM23.0 °F19.4 °F86 %30.38 in10.0 miCalmClear
2:15 AM23.0 °F19.4 °F86 %30.38 in10.0 miCalmClear
2:35 AM21.2 °F19.4 °F93 %30.37 in10.0 miCalmClear
2:55 AM21.2 °F19.4 °F93 %30.37 in10.0 miCalmClear
3:15 AM21.2 °F19.4 °F93 %30.36 in10.0 miCalmClear
3:35 AM21.2 °F19.4 °F93 %30.36 in10.0 miCalmClear
3:55 AM21.2 °F19.4 °F93 %30.36 in10.0 miCalmClear
4:15 AM21.2 °F19.4 °F93 %30.36 in10.0 miCalmClear
4:35 AM21.2 °F19.4 °F93 %30.36 in10.0 miCalmClear
4:55 AM21.2 °F19.4 °F93 %30.36 in10.0 miCalmClear
5:15 AM19.4 °F17.6 °F93 %30.37 in10.0 miCalmClear
5:35 AM19.4 °F17.6 °F93 %30.38 in10.0 miCalmClear
5:55 AM19.4 °F17.6 °F93 %30.38 in10.0 miCalmClear
6:15 AM19.4 °F19.4 °F100 %30.39 in10.0 miCalmClear
6:35 AM19.4 °F17.6 °F93 %30.39 in10.0 miCalmClear
6:50 AM19.4 °F17.6 °F93 %30.39 in10.0 miCalmClear
7:50 AM24.8 °F23.0 °F93 %30.40 in10.0 miCalmClear
10:50 AM53.6 °F26.6 °F35 %30.43 in10.0 miEast (100°)3.5 mphClear
11:50 AM55.4 °F26.6 °F33 %30.42 in10.0 miESE (120°)10.4 mphClear
1:50 PM59.0 °F30.2 °F34 %30.35 in10.0 miESE (120°)8.1 mphClear
2:50 PM60.8 °F32.0 °F34 %30.33 in10.0 miSouth (180°)6.9 mphClear
3:50 PM60.8 °F33.8 °F36 %30.32 in10.0 miSouth (170°)5.8 mphClear
4:50 PM60.8 °F37.4 °F42 %30.32 in10.0 miEast (80°)6.9 mphClear
5:50 PM57.2 °F39.2 °F51 %30.31 in10.0 miEast (90°)5.8 mphClear
6:50 PM53.6 °F39.2 °F58 %30.30 in10.0 miEast (90°)4.6 mphClear
7:50 PM50.0 °F39.2 °F66 %30.30 in10.0 miEast (90°)4.6 mphClear
8:15 PM44.6 °F39.2 °F81 %30.30 in10.0 miCalmClear
8:55 PM41.0 °F37.4 °F87 %30.29 in10.0 miCalmClear
9:15 PM39.2 °F35.6 °F87 %30.28 in10.0 miCalmClear
9:35 PM39.2 °F37.4 °F93 %30.28 in10.0 miCalmClear
9:55 PM39.2 °F35.6 °F87 %30.28 in10.0 miCalmClear
10:15 PM39.2 °F37.4 °F93 %30.27 in10.0 miCalmClear
10:35 PM37.4 °F35.6 °F93 %30.27 in10.0 miCalmClear
10:55 PM37.4 °F35.6 °F93 %30.27 in10.0 miCalmClear
11:15 PM37.4 °F37.4 °F100 %30.25 in10.0 miCalmClear
11:35 PM37.4 °F35.6 °F93 %30.25 in10.0 miCalmClear
11:55 PM35.6 °F35.6 °F100 %30.26 in10.0 miCalmClear
Hourly data recorded from KVQQ, located miles away from Baldwin, Florida







STORIES FROM OUR PARTNERS